Wetbulb
72.73 72.67 72.12 71.93 71.52 72.19 73.16 73.96 74.32 74.82 75.02 75.02 75.04 75.45 75.60 75.75 75.42 74.89 75.10 75.22 74.68 74.99 75.36 74.84 73.51 72.29 71.59 70.88 70.09 70.37 70.19 70.20 69.96 69.84 70.10 70.01 70.05 70.25 70.72 70.91 70.96 70.90 70.86
72.86 72.28 71.77 71.23 70.61 70.91 71.39 73.46 73.97 74.41 74.20 74.37 74.23 74.90 75.26 76.04 76.07 76.24 75.13 76.14 74.58 74.29 74.96 75.12 73.34 72.27 71.77 70.98 71.09 70.41 70.30 70.21 70.13 70.08 69.97 69.82 69.77 69.77 69.85 70.22 70.62 70.62 71.01
73.19 73.25 71.50 70.66 70.68 70.89 71.68 73.37 73.88 74.31 73.95 73.91 74.08 74.84 75.41 75.62 75.34 75.92 76.13 75.62 74.11 73.78 74.18 74.52 73.99 72.37 72.06 71.45 71.25 70.85 70.33 69.96 69.42 69.69 68.75 68.22 68.60 68.57 68.82 69.02 69.44 69.46 69.92
73.17 72.76 71.25 70.73 70.99 70.92 70.57 70.57 72.28 72.76 72.79 72.93 73.44 74.48 74.40 75.61 74.93 74.99 74.97 74.71 75.04 74.67 73.58 74.05 73.07 72.16 72.28 72.35 71.93 70.92 69.69 69.25 68.40 67.14 66.22 66.34 66.95 67.55 67.64 67.77 67.87 68.33 68.49
71.88 72.02 71.07 70.91 72.18 71.39 71.00 71.84 71.76 72.63 71.85 72.38 72.89 73.71 74.85 74.65 74.82 74.18 74.56 75.14 75.26 73.90 73.52 72.53 73.33 73.49 73.14 72.01 71.30 70.10 68.76 67.20 66.03 65.36 64.84 64.40 64.99 66.27 66.92 67.07 67.45 67.72 67.99
72.96 72.40 72.11 72.40 72.74 72.54 73.23 73.64 74.39 73.75 73.27 73.33 72.75 72.22 73.23 73.63 73.67 73.83 73.97 74.23 74.27 74.44 73.57 73.05 72.04 71.52 71.56 71.11 69.59 68.47 66.93 65.32 63.68 63.02 62.84 63.50 63.96 63.99 65.79 66.63 66.83 67.12 67.71
74.27 74.39 73.59 74.09 74.38 74.14 74.48 75.03 74.64 74.55 73.83 74.46 73.23 72.78 72.52 72.70 72.44 72.49 72.57 72.78 72.68 73.08 72.97 72.70 72.03 71.43 70.94 69.46 68.32 66.70 64.16 62.12 62.29 62.31 62.37 62.71 62.97 63.68 65.21 65.93 66.12 66.29 66.60
67.28 70.16 71.48 74.78 75.29 74.50 75.20 75.01 74.87 73.24 73.09 74.26 71.94 70.84 68.33 70.15 70.03 69.90 70.05 70.69 71.45 71.27 71.42 72.18 72.15 70.65 70.14 69.19 68.48 63.74 61.75 61.57 61.35 61.85 62.16 62.51 62.80 64.40 65.14 64.95 65.02 65.32 66.16
61.78 64.64 65.03 66.06 69.50 73.01 72.27 73.99 74.90 74.58 71.97 73.57 75.71 71.13 67.05 65.71 67.73 66.82 67.01 68.82 70.41 69.89 70.74 71.32 71.23 70.72 70.18 68.33 66.17 63.64 61.67 60.92 61.07 61.18 63.29 63.33 64.05 64.12 64.12 64.39 64.45 64.38 64.65
58.10 58.39 59.61 63.28 63.67 65.39 69.33 71.51 72.94 73.37 75.03 72.21 76.20 72.99 73.13 71.05 65.64 61.78 63.36 65.61 64.46 66.78 69.36 69.81 70.38 70.30 70.03 68.76 67.91 62.80 61.93 61.30 61.00 62.38 63.52 63.78 63.43 63.07 63.53 63.14 62.94 63.44 63.96
56.96 55.23 56.21 57.55 58.19 59.19 63.56 66.25 67.81 69.22 71.42 72.25 73.49 69.31 67.74 68.46 68.14 64.95 61.60 60.24 61.12 61.46 64.78 66.78 68.10 68.56 69.47 68.65 67.14 65.09 62.01 61.68 61.14 61.35 61.56 62.75 62.03 61.56 60.44 60.67 60.98 61.21 61.56
54.47 56.27 55.71 55.32 56.66 55.55 57.19 60.66 61.56 66.01 70.17 71.90 73.66 73.91 68.57 66.31 65.78 63.95 62.52 60.68 59.05 61.13 61.10 63.75 66.47 66.07 67.93 67.55 66.32 61.85 60.92 61.53 59.82 59.91 61.85 60.59 58.71 58.18 58.40 58.82 59.51 60.16 60.20
52.07 53.77 54.58 55.01 54.73 55.47 55.39 56.20 57.95 60.67 63.53 67.46 71.80 70.82 71.32 69.91 69.84 67.67 65.66 63.91 58.93 60.71 58.68 61.97 64.28 65.84 66.47 65.75 65.14 61.82 61.06 59.95 61.06 59.41 58.06 56.89 56.20 56.42 56.61 57.26 57.61 58.24 58.88
50.62 52.52 52.62 53.57 54.01 54.68 54.69 55.42 55.34 57.07 62.52 64.15 67.91 71.59 71.66 71.11 70.13 69.86 66.66 65.38 61.82 60.09 58.62 61.24 63.72 65.30 65.01 64.30 65.01 61.45 61.16 58.94 57.07 55.48 54.62 53.73 53.95 54.56 55.22 55.61 55.63 55.98 56.41
50.25 51.02 50.69 51.12 51.84 52.95 53.60 54.10 53.59 55.53 58.05 60.81 63.38 66.33 69.86 70.50 68.87 68.80 68.67 67.82 64.52 58.14 56.65 58.90 59.70 64.34 63.21 63.57 62.35 61.83 61.93 56.20 55.53 54.24 53.11 52.95 53.02 53.29 53.07 53.40 53.36 53.95 54.72
49.41 48.64 49.14 49.64 49.56 50.32 51.73 52.60 52.39 53.88 55.92 57.38 59.56 60.45 64.71 65.90 66.40 66.27 65.59 63.56 62.26 60.99 58.09 58.11 56.97 58.71 59.34 61.17 58.76 61.94 61.40 54.57 53.40 52.22 51.73 51.94 51.57 51.65 51.98 52.43 52.83 53.34 53.91
48.05 47.10 47.76 48.46 48.78 48.76 49.01 49.90 50.87 51.87 52.68 55.15 57.99 59.63 59.68 65.69 63.27 61.46 60.68 59.65 55.99 56.61 54.45 54.65 55.83 57.82 59.26 60.60 57.02 60.27 58.93 57.83 55.78 51.56 50.66 50.49 50.83 51.14 51.79 52.00 52.56 52.59 52.64
46.12 45.34 45.83 45.84 46.16 46.95 47.29 47.19 47.88 49.29 50.98 52.56 55.77 57.63 59.17 61.60 61.01 59.00 58.97 55.89 55.53 53.67 54.15 51.91 54.81 55.38 57.38 59.29 58.18 58.42 57.22 56.86 56.75 51.54 50.20 50.35 50.40 51.33 52.53 52.73 52.00 51.47 53.49
43.88 44.13 45.17 44.33 43.60 43.19 43.61 45.44 46.85 47.60 49.70 51.77 54.47 56.58 57.85 61.65 59.26 58.33 57.54 55.68 56.30 55.38 57.13 54.27 54.04 55.05 56.73 57.32 56.68 56.75 56.36 56.40 55.97 51.46 50.58 51.38 50.88 51.78 52.97 53.01 52.81 53.59 52.70
43.06 43.41 43.23 42.77 43.10 42.22 41.70 43.65 45.86 47.63 48.47 50.37 53.77 57.52 55.32 61.07 58.84 58.82 58.80 57.86 58.67 57.27 56.72 53.39 52.81 51.51 54.20 54.33 54.15 52.47 52.23 54.23 54.42 54.21 50.87 50.75 50.68 51.95 53.00 53.86 54.47 54.26 52.90
43.00 43.27 42.48 42.43 41.71 41.80 42.08 40.97 41.13 40.87 46.17 48.66 52.59 56.74 54.66 60.87 60.76 60.99 60.96 59.44 60.41 59.02 55.64 53.20 49.84 49.53 50.37 50.52 51.67 54.20 53.96 53.97 54.41 54.78 54.22 53.87 54.58 55.82 55.90 54.89 55.44 52.42 50.97
42.43 42.39 42.68 41.75 40.37 40.59 40.62 41.27 41.69 41.09 43.57 47.91 50.34 55.46 54.85 59.33 60.31 59.05 58.75 59.33 61.84 59.34 56.71 50.41 50.66 50.72 51.20 52.07 54.29 52.68 52.26 50.54 49.79 53.13 51.56 52.27 54.68 54.41 55.72 56.17 51.16 50.32 48.23
44.17 40.94 42.13 42.68 39.94 39.95 40.14 39.93 40.75 42.92 46.07 47.68 50.32 52.01 56.57 58.48 59.87 60.27 56.05 55.56 55.14 53.28 55.80 53.64 52.83 55.19 53.58 54.55 54.19 52.95 52.63 52.32 52.29 53.01 51.97 51.11 54.44 53.23 55.30 54.63 50.95 50.73 48.18
44.58 42.23 39.95 42.94 41.32 40.05 39.79 39.40 39.93 45.40 51.19 51.25 51.05 52.73 52.59 55.81 58.64 56.79 54.10 52.59 53.26 51.81 52.77 53.63 55.66 56.95 57.03 56.64 55.54 54.69 53.40 53.19 53.16 53.00 53.21 49.14 53.59 52.89 54.64 54.91 49.48 50.14 47.32
42.59 43.26 40.44 39.72 41.37 39.88 39.79 38.99 38.12 41.65 43.06 51.58 52.89 54.93 53.49 56.36 51.70 48.89 50.69 49.44 49.37 49.51 49.13 48.30 47.95 46.26 45.51 46.22 52.03 52.62 50.50 49.73 49.82 51.47 53.17 50.93 51.93 52.25 53.08 53.32 54.17 50.58 49.32
42.74 41.50 41.90 40.72 40.08 38.77 39.21 38.64 37.78 38.84 40.13 42.42 48.00 52.18 50.19 53.11 46.14 46.49 48.56 47.69 45.64 46.83 46.35 45.30 45.37 45.27 47.69 47.28 45.40 53.84 51.23 49.95 50.77 49.68 53.12 50.08 51.20 52.84 50.23 53.31 53.91 53.93 53.87
MSLP
1016.43 1016.43 1016.14 1016.09 1015.82 1015.55 1015.38 1015.12 1015.02 1014.90 1014.72 1014.43 1014.20 1014.13 1014.08 1014.64 1014.49 1014.65 1014.46 1015.02 1015.27 1015.49 1015.50 1015.47 1015.76 1016.05 1016.24 1016.53 1016.72 1016.86 1016.91 1017.08 1017.18 1017.30 1017.32 1017.28 1017.18 1017.16 1017.09 1017.12 1017.24 1017.32 1017.42
1016.25 1016.08 1015.91 1015.77 1015.55 1015.49 1015.28 1015.00 1014.82 1014.89 1014.61 1014.24 1014.16 1014.03 1014.06 1014.23 1014.63 1014.41 1014.28 1014.32 1015.22 1015.32 1015.51 1015.56 1015.60 1015.93 1016.11 1016.34 1016.63 1016.88 1017.09 1017.11 1017.10 1017.28 1017.37 1017.32 1017.15 1017.12 1017.16 1017.00 1016.94 1017.05 1017.10
1016.11 1016.23 1015.76 1015.52 1015.30 1015.20 1015.16 1015.04 1014.82 1014.41 1014.30 1014.01 1013.77 1013.75 1013.71 1013.66 1014.19 1014.29 1013.91 1013.67 1014.08 1015.15 1015.31 1015.68 1015.52 1015.77 1016.09 1016.30 1016.62 1016.84 1016.98 1017.17 1017.16 1017.19 1017.32 1017.39 1017.31 1017.09 1016.98 1017.17 1017.16 1016.99 1017.00
1015.88 1015.91 1015.59 1015.27 1015.04 1014.94 1014.70 1014.53 1014.48 1014.16 1013.84 1013.62 1013.47 1013.42 1013.20 1013.47 1013.72 1013.81 1013.50 1013.49 1013.41 1013.32 1015.05 1015.46 1015.78 1015.78 1016.01 1016.22 1016.49 1016.69 1016.91 1016.88 1017.13 1017.22 1017.30 1017.47 1017.37 1017.05 1016.90 1016.94 1016.81 1016.76 1016.67
1015.42 1015.44 1015.06 1014.80 1014.96 1014.68 1014.27 1014.18 1014.00 1013.80 1013.48 1013.38 1013.15 1013.05 1013.21 1013.37 1013.33 1013.20 1013.27 1013.21 1013.39 1013.59 1013.78 1015.06 1015.79 1015.90 1015.95 1016.26 1016.44 1016.77 1016.86 1017.06 1016.91 1017.04 1017.08 1017.14 1017.29 1017.26 1016.96 1016.75 1016.83 1016.71 1016.74
1014.95 1015.05 1014.72 1014.67 1014.69 1014.39 1014.01 1013.74 1013.74 1013.48 1013.26 1013.03 1012.71 1012.39 1012.79 1013.29 1013.27 1013.11 1013.17 1013.07 1013.04 1013.49 1013.57 1014.28 1015.21 1015.61 1016.26 1016.23 1016.38 1016.53 1016.84 1016.84 1017.01 1016.99 1017.02 1016.98 1017.01 1017.09 1017.06 1016.77 1016.62 1016.61 1016.50
1014.75 1014.64 1014.37 1014.03 1013.93 1014.03 1013.81 1013.80 1013.67 1013.35 1012.95 1012.74 1012.84 1012.53 1012.55 1013.13 1013.39 1012.90 1013.01 1012.93 1012.97 1013.39 1013.44 1014.29 1014.55 1014.31 1015.64 1016.43 1016.45 1016.49 1016.71 1016.84 1016.76 1016.96 1016.84 1016.95 1016.76 1016.82 1016.81 1016.74 1016.51 1016.39 1016.27
1016.50 1015.83 1015.52 1014.43 1013.86 1013.51 1013.49 1013.65 1013.70 1013.19 1012.42 1012.08 1011.97 1011.75 1011.43 1011.71 1013.06 1013.13 1013.02 1012.89 1012.76 1012.60 1012.90 1013.78 1013.96 1014.49 1014.59 1015.21 1015.81 1016.50 1016.56 1016.65 1016.84 1016.66 1016.67 1016.67 1016.78 1016.69 1016.69 1016.50 1016.42 1016.17 1016.09
1017.65 1017.10 1016.65 1016.13 1015.21 1014.59 1013.83 1013.29 1013.42 1012.92 1012.31 1011.61 1011.31 1011.62 1010.84 1011.31 1012.10 1013.60 1013.42 1012.90 1013.01 1012.71 1011.97 1012.44 1013.04 1013.57 1014.20 1014.42 1015.53 1016.17 1016.38 1016.54 1016.48 1016.35 1016.54 1016.45 1016.47 1016.52 1016.46 1016.38 1016.17 1016.09 1015.92
1018.01 1017.76 1017.50 1016.76 1016.35 1014.93 1014.76 1013.25 1013.34 1013.04 1012.40 1011.93 1011.29 1011.56 1011.26 1011.47 1012.02 1013.11 1013.43 1013.97 1014.09 1013.58 1013.61 1012.99 1012.90 1013.48 1013.29 1013.79 1014.35 1015.58 1015.85 1016.11 1016.43 1016.18 1016.36 1016.30 1016.28 1016.24 1016.38 1016.28 1016.07 1015.80 1015.66
1017.57 1017.58 1017.58 1017.40 1016.91 1016.24 1015.57 1014.30 1013.74 1013.12 1012.36 1011.68 1011.59 1011.70 1011.84 1011.84 1011.92 1011.93 1012.77 1013.37 1013.62 1012.56 1011.80 1012.69 1011.86 1012.38 1012.66 1013.02 1013.05 1014.30 1015.64 1015.61 1016.15 1016.21 1016.11 1016.11 1016.30 1016.19 1016.19 1016.29 1015.98 1015.67 1015.37
1017.48 1017.15 1017.19 1017.22 1016.94 1016.73 1015.94 1015.10 1014.56 1013.53 1012.18 1011.30 1010.81 1010.77 1010.63 1010.77 1010.62 1011.28 1011.59 1012.03 1011.75 1011.69 1011.79 1011.51 1011.81 1011.89 1011.78 1012.75 1012.62 1013.76 1014.82 1015.32 1015.71 1015.98 1016.09 1016.15 1016.14 1016.23 1016.04 1015.87 1015.71 1015.62 1015.29
1018.09 1017.67 1017.71 1017.26 1016.80 1016.38 1016.07 1015.68 1014.71 1013.67 1012.78 1011.62 1010.34 1009.50 1009.33 1009.24 1009.42 1009.64 1010.17 1010.38 1010.90 1010.96 1011.48 1011.29 1010.77 1011.14 1011.19 1011.97 1012.08 1012.91 1014.14 1014.98 1015.43 1015.73 1015.88 1016.06 1016.14 1016.06 1015.95 1015.92 1015.67 1015.51 1015.13
1019.03 1018.60 1018.15 1017.51 1016.97 1016.33 1015.81 1015.20 1014.30 1013.27 1012.17 1011.16 1010.00 1009.24 1008.46 1008.07 1008.07 1008.34 1008.84 1009.14 1009.67 1010.26 1010.33 1010.26 1010.22 1010.31 1011.02 1011.62 1011.72 1011.99 1013.65 1014.62 1015.35 1015.47 1015.71 1015.86 1015.91 1015.78 1015.75 1015.74 1015.50 1015.44 1015.20
1019.42 1018.70 1018.50 1017.74 1016.96 1016.14 1015.59 1015.00 1014.05 1012.95 1012.06 1010.99 1009.99 1009.25 1008.03 1007.21 1007.47 1007.81 1008.00 1007.92 1008.34 1008.64 1009.05 1009.99 1010.10 1010.40 1011.10 1011.60 1012.27 1011.64 1012.65 1014.46 1015.23 1015.36 1015.29 1015.53 1015.55 1015.50 1015.49 1015.34 1015.09 1015.04 1014.76
1019.38 1018.70 1017.98 1017.27 1016.64 1015.99 1015.36 1014.59 1013.60 1012.60 1011.45 1010.30 1009.36 1008.85 1007.86 1006.90 1007.40 1007.53 1007.95 1007.95 1008.07 1008.00 1007.86 1008.67 1009.95 1010.04 1011.07 1011.69 1012.05 1011.72 1012.30 1014.21 1014.89 1015.02 1015.06 1015.18 1015.19 1015.18 1015.08 1015.01 1014.80 1014.61 1014.43
1019.30 1018.56 1017.61 1016.65 1015.94 1015.28 1014.76 1013.99 1013.13 1012.28 1011.06 1009.75 1008.86 1008.08 1007.01 1006.36 1006.19 1006.91 1007.43 1007.43 1007.75 1007.75 1007.85 1008.99 1009.60 1010.33 1010.75 1011.07 1011.87 1011.70 1012.56 1013.44 1013.99 1014.41 1014.53 1014.78 1014.90 1014.87 1014.53 1014.33 1014.27 1014.11 1014.05
1019.43 1018.77 1017.77 1016.74 1015.85 1014.93 1014.08 1013.23 1012.18 1011.31 1010.31 1008.87 1007.59 1006.78 1005.98 1005.60 1005.55 1006.09 1006.51 1006.66 1007.06 1007.21 1007.39 1008.16 1008.94 1010.08 1010.60 1010.91 1011.38 1011.55 1012.28 1012.56 1012.73 1013.86 1014.17 1014.36 1014.25 1014.35 1014.02 1013.80 1013.90 1013.84 1013.86
1019.35 1018.36 1017.31 1016.37 1015.57 1014.76 1013.72 1012.57 1011.31 1010.08 1009.10 1008.10 1006.70 1005.56 1005.06 1004.68 1004.61 1005.02 1005.34 1005.59 1006.12 1006.51 1006.77 1007.24 1008.29 1009.44 1010.00 1010.59 1010.77 1011.77 1012.40 1012.32 1012.86 1013.31 1013.71 1013.79 1013.77 1013.91 1013.68 1013.44 1013.68 1013.62 1013.60
1019.47 1018.49 1017.36 1016.39 1015.36 1014.22 1013.23 1011.86 1010.45 1008.74 1007.86 1006.97 1005.79 1004.41 1004.14 1003.21 1003.15 1003.58 1003.78 1004.18 1004.87 1005.56 1006.04 1007.07 1007.92 1008.85 1009.55 1010.52 1010.70 1011.09 1011.77 1011.89 1011.68 1012.14 1012.76 1012.96 1013.24 1013.32 1013.10 1013.12 1013.22 1013.38 1013.33
1019.33 1018.36 1017.11 1016.10 1015.32 1014.12 1012.61 1011.75 1010.46 1009.09 1007.20 1005.52 1004.53 1003.19 1002.63 1001.84 1001.64 1001.94 1001.91 1002.64 1003.57 1004.09 1004.79 1005.96 1007.29 1008.43 1009.00 1009.83 1010.07 1010.14 1010.37 1010.70 1011.36 1011.52 1011.43 1011.77 1011.84 1011.69 1012.01 1012.65 1012.62 1012.89 1013.05
1019.35 1018.14 1016.85 1015.77 1014.90 1013.86 1012.73 1011.46 1009.94 1007.64 1005.71 1004.14 1002.92 1001.78 1001.14 1000.74 1000.36 1000.75 1000.86 1000.97 1001.69 1002.91 1003.70 1004.93 1005.60 1006.91 1007.64 1008.39 1009.19 1009.91 1009.94 1010.46 1010.38 1011.30 1011.49 1011.02 1011.02 1011.14 1011.01 1011.29 1012.49 1012.75 1012.80
1018.48 1017.83 1016.64 1015.35 1014.70 1013.66 1012.24 1010.63 1008.52 1005.62 1003.14 1001.82 1001.24 1000.98 999.90 999.51 999.01 999.76 1000.35 1000.95 1001.14 1002.55 1002.64 1003.20 1004.42 1005.55 1007.09 1007.91 1008.97 1009.60 1009.73 1009.50 1009.70 1010.52 1011.27 1010.48 1010.46 1010.45 1010.60 1010.97 1012.00 1012.51 1012.77
1018.12 1017.31 1016.59 1015.58 1014.64 1013.32 1011.77 1009.83 1007.24 1003.70 1000.78 999.44 999.09 999.22 999.31 999.03 998.22 999.32 1000.35 1001.58 1001.22 1002.46 1003.15 1003.45 1004.15 1005.56 1006.81 1007.90 1008.70 1008.89 1009.30 1009.53 1010.08 1010.53 1010.97 1010.33 1009.82 1010.13 1010.48 1010.71 1011.59 1011.95 1012.51
1018.10 1017.45 1016.88 1016.19 1014.71 1013.11 1011.36 1009.30 1007.11 1003.83 1001.22 998.81 998.07 997.75 998.02 998.31 998.61 999.40 1000.67 1001.84 1002.57 1002.28 1003.07 1003.83 1004.78 1005.94 1007.34 1008.38 1008.60 1008.73 1009.02 1009.06 1008.92 1009.28 1010.16 1010.44 1009.76 1009.74 1010.24 1010.21 1010.68 1011.56 1011.58
1018.28 1018.00 1016.82 1016.29 1015.19 1013.73 1011.99 1010.02 1007.88 1005.34 1002.52 1001.00 998.38 997.16 997.43 997.96 998.90 1000.21 1001.12 1002.10 1003.79 1004.72 1002.57 1004.70 1005.65 1007.23 1008.21 1008.70 1009.37 1009.05 1008.95 1008.60 1008.51 1008.90 1009.34 1010.00 1009.67 1009.96 1009.47 1009.63 1010.05 1010.06 1010.06
Wind_Speed
6 7 6 7 7 7 6 6 6 5 7 8 7 6 6 6 7 3 3 5 7 6 7 9 10 8 7 6 4 3 4 5 5 5 6 6 5 5 6 8 12 15 17
7 8 8 8 8 7 8 7 7 6 7 8 8 8 7 5 4 4 5 5 8 8 6 9 11 8 6 6 6 5 4 4 5 6 6 7 6 7 7 6 7 8 10
10 10 9 8 8 8 9 8 8 8 8 8 9 8 7 6 4 6 6 5 9 10 8 8 9 8 6 6 7 6 5 5 5 6 6 6 7 6 7 8 9 8 8
11 10 9 9 9 8 8 8 8 8 8 8 7 7 7 4 8 7 8 6 4 5 9 8 6 7 7 9 8 7 6 6 6 6 6 7 7 6 6 7 8 9 9
11 10 9 9 9 9 9 9 9 9 9 9 9 8 6 7 6 8 7 6 6 6 5 10 6 7 10 9 8 7 7 5 5 3 4 6 8 9 9 9 9 10 11
10 10 10 10 9 9 10 10 10 9 9 9 9 9 5 7 7 7 7 6 6 7 6 8 9 8 7 9 9 9 6 5 2 2 2 3 6 8 9 9 11 10 11
10 10 10 10 10 11 11 12 11 12 10 10 9 9 8 7 8 7 5 5 5 7 6 6 6 4 8 6 7 7 5 2 2 3 3 4 4 7 7 9 9 11 12
15 12 15 12 11 9 10 11 12 12 12 10 10 9 9 6 7 6 4 5 8 8 8 9 8 6 4 8 10 7 5 3 1 3 4 4 5 5 7 8 10 11 12
14 13 13 12 13 10 10 11 12 12 13 13 12 10 7 8 4 3 7 7 7 8 10 11 12 11 9 7 10 8 6 3 2 1 3 2 2 4 5 8 10 12 13
12 13 12 12 11 9 12 8 11 13 11 13 8 9 11 9 6 4 2 3 5 6 7 7 10 11 12 9 9 5 10 6 4 3 2 1 1 2 5 7 8 10 12
13 10 11 14 13 10 13 15 13 12 10 11 11 3 7 9 9 9 5 5 7 11 11 12 13 12 13 12 10 10 10 9 8 6 5 4 2 1 3 6 7 9 11
12 13 14 12 13 11 13 12 14 18 16 17 11 10 12 9 11 10 8 6 9 8 9 9 9 11 11 10 11 14 11 9 8 7 6 4 2 2 4 6 9 11 12
13 14 17 15 14 15 15 15 17 16 16 15 18 16 14 16 13 12 12 11 9 7 7 11 11 12 11 11 12 12 12 10 9 8 6 4 2 4 6 9 11 13 13
14 18 18 18 19 18 17 17 15 15 16 16 20 18 14 15 14 14 15 13 11 9 8 9 11 11 10 10 9 16 11 12 11 9 7 4 5 6 9 11 12 14 14
15 18 19 19 20 20 19 18 15 18 18 17 18 18 17 14 11 13 13 14 13 11 13 11 8 11 10 9 8 11 13 14 11 9 6 5 6 7 10 11 11 12 12
19 20 20 19 19 19 19 20 17 18 19 17 15 18 18 10 12 12 14 11 11 11 10 9 8 9 8 9 9 8 8 14 12 9 6 6 6 8 8 10 10 11 11
20 20 21 21 19 19 19 17 19 22 24 22 20 20 20 18 11 10 10 12 10 10 7 5 6 8 13 12 10 9 10 11 11 11 6 4 5 6 7 8 9 8 8
20 20 20 21 20 21 19 19 20 19 23 24 23 21 19 9 14 13 12 14 13 10 8 9 9 9 12 10 11 10 8 8 6 13 8 7 6 6 5 6 6 6 7
20 20 21 20 19 18 19 19 22 21 21 24 25 22 19 18 16 12 13 12 12 9 9 8 8 8 11 11 10 9 9 7 7 12 11 11 7 5 1 2 3 3 4
20 20 21 21 20 19 19 18 22 18 20 22 25 23 20 21 19 18 16 16 13 14 13 10 8 10 8 9 9 9 8 9 7 5 4 4 4 8 6 3 3 2 2
18 17 20 19 21 20 14 20 21 21 22 21 25 25 21 26 27 23 14 16 18 16 15 13 11 10 11 11 10 8 9 7 7 5 4 4 5 7 9 10 6 5 5
17 17 18 20 20 14 28 33 32 23 21 22 22 24 20 28 26 27 26 25 22 19 18 12 10 13 12 12 11 10 8 7 7 6 4 5 5 6 5 5 9 3 3
17 15 18 21 22 19 31 35 40 23 20 19 22 20 18 16 21 19 20 14 23 17 17 17 15 14 15 12 12 12 9 7 4 8 4 5 5 5 5 5 12 8 3
19 17 17 21 21 17 34 37 42 24 22 18 20 20 19 19 15 15 13 11 16 14 12 10 13 13 12 13 12 8 10 6 2 4 4 6 5 5 5 5 14 11 5
16 18 14 19 22 23 35 38 36 20 20 16 16 21 18 17 14 17 15 14 11 10 14 20 20 19 16 10 8 8 7 7 5 5 7 6 5 5 5 6 6 13 13
17 14 19 17 23 23 31 37 34 17 19 15 9 2 4 9 15 14 14 16 12 7 14 16 14 13 10 10 6 1 5 4 3 4 4 5 5 3 5 5 4 5 7
Wind_Direction
255 267 273 279 286 288 267 264 272 284 280 266 275 299 316 302 308 338 347 159 196 215 191 171 160 158 160 144 124 99 84 70 54 32 22 13 7 350 332 291 269 254 243
250 259 258 260 267 270 278 277 278 301 289 293 283 279 296 268 298 289 269 195 190 200 208 176 157 171 172 145 129 103 82 77 68 50 32 18 8 357 351 340 330 309 277
244 260 267 266 268 268 266 257 260 263 254 263 268 253 274 264 283 261 274 280 162 186 183 184 164 176 183 151 137 123 110 84 66 61 35 15 4 358 340 341 339 334 340
241 252 257 262 264 264 262 263 260 265 265 262 268 274 272 253 257 271 273 280 243 168 167 182 179 182 173 153 145 138 123 107 81 58 32 12 359 347 344 338 324 320 313
253 249 255 259 259 263 260 260 255 256 265 265 269 249 252 260 248 264 285 268 261 276 178 143 154 147 143 150 149 146 133 118 109 83 40 14 352 346 340 327 324 320 320
262 255 259 257 255 258 260 257 261 260 261 268 273 278 265 265 256 259 259 248 238 220 220 160 169 149 147 158 160 157 153 146 136 39 10 357 346 334 334 338 329 322 321
292 278 267 263 242 256 269 280 264 249 253 250 264 264 243 236 252 257 237 242 212 215 208 195 237 177 154 158 161 163 155 142 95 13 12 342 330 326 329 339 341 331 318
348 345 339 300 283 284 275 271 268 273 264 244 242 264 276 211 216 219 231 219 205 203 195 204 219 213 230 190 173 168 153 152 355 9 343 335 322 328 339 344 340 336 332
332 347 338 339 335 312 290 280 272 257 266 265 227 233 256 242 141 166 233 222 208 225 199 196 194 202 202 233 149 174 170 171 172 344 324 327 313 339 340 348 348 344 338
335 334 325 331 320 320 285 287 272 270 260 265 263 244 254 280 225 206 235 267 268 249 258 227 205 217 196 205 189 85 155 178 202 187 213 228 271 324 341 345 349 348 341
330 336 335 327 319 322 313 311 302 294 277 256 258 203 217 224 232 242 205 191 221 218 191 227 214 214 202 205 180 171 178 180 202 202 212 218 258 303 335 334 335 334 334
329 331 332 328 311 307 308 306 301 299 285 270 258 240 218 207 210 214 217 195 208 226 229 207 215 218 202 202 199 134 164 180 183 198 186 179 186 296 324 317 314 319 322
328 326 326 318 313 311 302 292 289 281 284 280 269 250 228 233 239 219 229 217 222 207 212 222 213 212 203 196 190 169 158 161 155 148 153 174 240 287 293 300 308 308 313
322 324 315 312 307 301 297 295 285 283 282 270 276 267 254 238 237 227 227 224 217 226 204 221 211 209 202 204 186 155 146 154 158 156 177 203 251 271 282 288 296 299 306
322 316 313 307 306 302 297 291 285 283 278 269 264 277 266 236 237 236 235 230 223 215 209 202 202 199 194 187 165 172 156 158 177 181 193 243 265 277 283 282 288 293 295
322 316 313 309 306 300 296 289 284 279 275 268 265 266 270 217 233 216 226 223 220 227 229 173 201 167 175 185 157 184 159 162 178 184 202 230 253 275 284 289 290 284 296
326 322 318 315 313 307 300 290 280 279 274 272 266 263 262 239 208 206 211 209 203 200 187 179 167 164 177 180 153 186 151 207 174 167 174 250 266 272 278 280 283 290 295
331 324 319 314 307 307 297 289 284 272 272 273 269 261 254 225 212 203 202 203 209 200 189 155 163 158 185 185 166 179 196 208 234 157 171 215 220 264 289 306 297 288 295
331 327 327 324 321 310 306 297 284 271 262 266 266 258 257 227 213 207 204 199 200 185 184 162 156 160 180 181 163 196 196 202 224 143 196 206 197 222 273 6 311 299 318
334 329 334 329 322 318 309 297 320 273 263 259 264 259 255 231 214 209 200 193 192 187 178 152 152 163 165 171 176 180 195 212 203 196 182 257 216 196 202 198 224 235 292
333 328 330 331 325 324 320 320 317 304 286 257 262 262 248 238 219 212 195 188 191 192 183 174 154 164 172 172 195 192 208 175 179 220 213 223 224 221 178 197 217 100 17
332 329 336 339 329 323 321 320 318 303 280 262 255 257 245 248 222 212 206 197 187 182 187 178 165 176 180 169 192 174 188 185 186 167 209 240 211 238 238 236 110 104 44
340 337 330 342 337 328 330 327 321 303 270 248 242 250 256 251 210 210 204 209 172 182 194 173 173 185 171 171 170 181 185 184 202 136 211 256 223 244 238 160 157 168 213
344 351 339 334 338 336 340 336 334 323 309 245 229 235 239 255 193 187 176 181 173 168 163 166 155 166 171 164 170 179 161 161 156 218 211 254 218 235 248 262 168 164 186
346 347 348 334 340 344 348 347 347 339 339 288 233 230 226 239 172 155 159 159 159 134 91 85 86 88 85 75 137 155 164 183 194 200 165 249 263 250 248 256 151 183 213
352 348 348 347 342 344 350 351 356 343 355 342 353 116 136 181 131 136 144 141 126 90 114 108 100 92 107 92 54 251 157 211 214 226 149 231 236 276 263 154 208 233 235